LFRCLFRB

Guest
Details From LFRC - Cherbourg Maupertus
To LFRB - Brest Bretagne
Flight Number -
Tags generated
Created
Modified
Stats Distance 137 nm / 253 km
Max Altitude 0 ft / 0 m
Waypoints 3
Social Downloads 1
Likes 0
Share VATSIM

Download

Looking for another format? Having issues loading an existing format? Contact us
Advertisement - Login to hide

Notes

None

Route

LFRC SOMEN LFRB

ID Type Via Altitude Latitude Longitude Leg Dist Tot Dist Heading (true) Name
O LFRC APT - 0 ft / 0 m 49.65015˚ -1.47026˚ - 0 nm - Cherbourg Maupertus
SOMEN FIX - 0 ft / 0 m 48.85000˚ -3.55000˚ 94 nm 94 nm 240° / 239° -
O LFRB APT - 0 ft / 0 m 48.44938˚ -4.41823˚ 42 nm 136 nm 235° / 235° Brest Bretagne

Altitude Profile

Advertisement - Login to hide

LFRC

Details ICAO LFRC (CER)
Name Cherbourg Maupertus
Region France
Timezone Europe/Paris (UTC+2.0)
Stats Elevation 459 ft / 140 m (AMSL)
Location 49.650151° -1.470264°
Runways 1
Magnetic Variation 0.645° W

METAR

LFRC 201630Z AUTO 07008KT 040V100 5000 BR NSC 13/09 Q1019 NOSIG

Decode

TAF

Not found

Departure Runways

ID Width Length Bearing (true) Bearing (mag) Surface Threshold Offset Overrun Length
10 148 ft / 45 m 7,985 ft / 2,434 m 100.78° 101.43° Asphalt 0 ft / 0 m 0 ft / 0 m
28 148 ft / 45 m 7,985 ft / 2,434 m 280.80° 281.45° Asphalt 0 ft / 0 m 0 ft / 0 m

LFRB

Details ICAO LFRB (BES)
Name Brest Bretagne
Region France
Timezone Europe/Paris (UTC+2.0)
Stats Elevation 325 ft / 99 m (AMSL)
Location 48.449376° -4.418232°
Runways 2
Magnetic Variation 1.515° W

METAR

LFRB 201630Z AUTO 02009KT 350V050 CAVOK 18/11 Q1017 NOSIG

Decode

TAF

TAF LFRB 201100Z 2012/2118 03005KT 9999 FEW025 TEMPO 2100/2106 3000 BR BKN008 PROB30 TEMPO 2103/2106 0600 FG VV///

Decode

Destination Runways

ID Width Length Bearing (true) Bearing (mag) Surface Threshold Offset Overrun Length
07L 62 ft / 19 m 2,518 ft / 768 m 71.21° 72.72° Asphalt 131 ft / 40 m 0 ft / 0 m
07R 148 ft / 45 m 10,153 ft / 3,095 m 71.16° 72.67° Asphalt 0 ft / 0 m 0 ft / 0 m
25L 148 ft / 45 m 10,153 ft / 3,095 m 251.19° 252.70° Asphalt 984 ft / 300 m 0 ft / 0 m
25R 62 ft / 19 m 2,518 ft / 768 m 251.22° 252.73° Asphalt 112 ft / 34 m 0 ft / 0 m

Approach Navaids

Runway Type Ident Frequency Range Bearing (true) Bearing (mag) Slope Elevation
25L Localiser BG 109.90 MHz 27 nm / 50 km 251.20° 252.71° - 325 ft / 99 m (AMSL)
25L Glidescope BG 109.90 MHz 27 nm / 50 km 251.20° 252.71° 3.00° 325 ft / 99 m (AMSL)
25L DME BG 109.90 MHz 27 nm / 50 km - - - 325 ft / 99 m (AMSL)

Popular Alternatives